GW6315 Weather Reports


time (UTC)temp
C
wind
direction
speed
KPH
gust
KPH
rain 1hr
cm
rain 24hr
cm
rain mn
cm
humidity
%
barometer
mb
20260502200202 23 20 6.4 9.7 0.00 0.00 0.00 37 1019.0
20260502195700 23 37 14.5 20.9 0.00 0.00 0.00 36 1018.9
20260502195156 23 29 6.4 9.7 0.00 0.00 0.00 38 1018.8
20260502194653 23 24 6.4 14.5 0.00 0.00 0.00 37 1019.1
20260502194150 23 38 8.0 11.3 0.00 0.00 0.00 38 1019.1
20260502193647 23 57 8.0 12.9 0.00 0.00 0.00 38 1019.2
20260502193144 23 35 8.0 19.3 0.00 0.00 0.00 35 1019.1
20260502192638 23 70 14.5 17.7 0.00 0.00 0.00 37 1019.5
20260502192136 23 356 4.8 16.1 0.00 0.00 0.00 37 1019.4
20260502191633 23 10 4.8 12.9 0.00 0.00 0.00 39 1019.3
20260502191131 23 29 9.7 9.7 0.00 0.00 0.00 40 1019.3
20260502190628 23 64 8.0 12.9 0.00 0.00 0.00 38 1019.6
20260502190126 22 40 6.4 12.9 0.00 0.00 0.00 40 1019.2
20260502185620 23 15 8.0 12.9 0.00 0.00 0.00 39 1019.4
20260502185117 22 40 8.0 12.9 0.00 0.00 0.00 40 1019.6
20260502184613 23 55 11.3 17.7 0.00 0.00 0.00 39 1019.6
20260502184108 23 307 9.7 11.3 0.00 0.00 0.00 40 1019.9
20260502183605 23 68 6.4 11.3 0.00 0.00 0.00 40 1019.7
20260502183102 23 55 8.0 11.3 0.00 0.00 0.00 41 1019.9
20260502182557 22 18 6.4 9.7 0.00 0.00 0.00 45 1019.8
20260502182053 22 8 3.2 16.1 0.00 0.00 0.00 43 1019.8
20260502181551 22 68 9.7 17.7 0.00 0.00 0.00 42 1019.9
20260502181049 22 324 6.4 12.9 0.00 0.00 0.00 43 1020.1
20260502180546 22 45 6.4 14.5 0.00 0.00 0.00 44 1020.1
20260502170505 21 16 4.8 11.3 0.00 0.00 0.00 50 1020.2
20260502163949 21 42 14.5 19.3 0.00 0.00 0.00 50 1020.3
20260502163444 20 19 6.4 14.5 0.00 0.00 0.00 54 1020.4
20260502162942 20 27 9.7 12.9 0.00 0.00 0.00 55 1020.1
20260502162439 20 59 6.4 8.0 0.00 0.00 0.00 58 1020.2
20260502161936 20 37 6.4 16.1 0.00 0.00 0.00 56 1020.2
20260502161432 20 31 8.0 16.1 0.00 0.00 0.00 57 1020.4
20260502160930 20 28 4.8 20.9 0.00 0.00 0.00 59 1020.7
20260502160428 19 300 6.4 11.3 0.00 0.00 0.00 57 1020.4
20260502151907 18 37 3.2 9.7 0.00 0.00 0.00 69 1020.4
20260502151402 18 17 6.4 14.5 0.00 0.00 0.00 67 1020.5
20260502150900 17 44 3.2 9.7 0.00 0.00 0.00 69 1020.4
20260502150356 17 5 3.2 6.4 0.00 0.00 0.00 72 1020.3
20260502130745 12 42 6.4 11.3 0.00 0.00 0.00 96 1019.1
20260502130242 12 329 8.0 9.7 0.00 0.00 0.00 96 1018.8
20260502123728 11 331 1.6 4.8 0.00 0.00 0.00 97 1018.8
20260502123225 11 19 3.2 3.2 0.00 0.00 0.00 97 1018.6
20260502122722 11 319 1.6 6.4 0.00 0.00 0.00 97 1018.7
20260502122218 11 347 3.2 3.2 0.00 0.00 0.00 97 1018.5
20260502121717 11 331 3.2 4.8 0.00 0.00 0.00 97 1018.4
20260502121214 11 11 3.2 4.8 0.00 0.00 0.00 97 1018.3
20260502120710 11 333 1.6 4.8 0.00 0.00 0.00 97 1018.2
20260502120207 11 308 3.2 3.2 0.00 0.00 0.00 97 1018.2
20260502115705 11 352 1.6 4.8 0.00 0.00 0.00 97 1018.1
20260502115201 11 344 3.2 4.8 0.00 0.00 0.00 97 1018.0
20260502114657 11 5 3.2 4.8 0.00 0.00 0.00 97 1018.0
20260502114155 11 20 4.8 4.8 0.00 0.00 0.00 97 1018.0
20260502113652 11 6 3.2 6.4 0.00 0.00 0.00 97 1018.0
20260502113150 11 4 1.6 4.8 0.00 0.00 0.00 97 1017.9
20260502112647 11 30 4.8 8.0 0.00 0.00 0.00 97 1017.7
20260502112145 11 7 4.8 6.4 0.00 0.00 0.00 97 1017.8
20260502111642 11 359 1.6 6.4 0.00 0.00 0.00 97 1017.6
20260502111139 11 345 3.2 9.7 0.00 0.00 0.00 97 1017.5
20260502110637 11 6 3.2 8.0 0.00 0.00 0.00 96 1017.4
20260502110134 11 9 8.0 8.0 0.00 0.00 0.00 96 1017.5
20260502105631 11 5 3.2 6.4 0.00 0.00 0.00 96 1017.3
20260502105129 11 21 4.8 8.0 0.00 0.00 0.00 96 1017.4
20260502104626 11 359 1.6 8.0 0.00 0.00 0.00 96 1017.3
20260502104123 11 9 4.8 6.4 0.00 0.00 0.00 96 1017.2
20260502103620 11 338 3.2 6.4 0.00 0.00 0.00 96 1017.2
20260502103119 11 14 3.2 6.4 0.00 0.00 0.00 95 1017.1
20260502102615 11 25 4.8 9.7 0.00 0.00 0.00 95 1016.9
20260502102112 11 29 3.2 8.0 0.00 0.00 0.00 95 1016.9
20260502101610 11 14 4.8 8.0 0.00 0.00 0.00 95 1016.8
20260502101108 11 27 3.2 6.4 0.00 0.00 0.00 95 1016.9
20260502100606 11 19 3.2 6.4 0.00 0.00 0.00 95 1016.8
20260502100104 11 11 0.0 8.0 0.00 0.00 0.00 95 1016.8
20260502091038 11 29 3.2 8.0 0.00 0.00 0.00 95 1016.1
20260502090535 11 358 3.2 6.4 0.00 0.00 0.00 95 1016.2
20260502071429 11 319 3.2 4.8 0.00 0.00 0.00 94 1015.6
20260502070927 11 27 3.2 8.0 0.00 0.00 0.00 93 1015.9
20260502070425 11 281 3.2 9.7 0.00 0.00 0.00 93 1015.6
20260502065924 11 48 4.8 6.4 0.00 0.00 0.00 93 1015.7
20260502065422 11 46 3.2 8.0 0.00 0.00 0.00 93 1015.6
20260502064919 11 66 3.2 9.7 0.00 0.00 0.00 94 1015.8
20260502064417 11 60 3.2 8.0 0.00 0.00 0.00 94 1015.6
20260502063914 11 69 4.8 6.4 0.00 0.00 0.00 94 1016.0
20260502063411 11 60 6.4 8.0 0.00 0.00 0.00 94 1016.1
20260502062909 11 57 4.8 8.0 0.00 0.00 0.00 94 1015.9
20260502062406 11 73 6.4 11.3 0.00 0.00 0.00 94 1016.2
20260502061905 11 37 6.4 8.0 0.00 0.00 0.00 94 1016.1
20260502061403 11 43 3.2 6.4 0.00 0.00 0.00 95 1016.3
20260502060858 11 42 3.2 6.4 0.00 0.00 0.00 95 1016.5
20260502060353 11 20 4.8 9.7 0.00 0.00 0.00 95 1016.4
20260502055851 12 37 3.2 6.4 0.00 0.00 0.00 95 1016.5
20260502055348 12 36 1.6 6.4 0.00 0.00 0.00 95 1016.3
20260502054848 12 69 3.2 8.0 0.00 0.00 0.00 96 1016.5
20260502054345 12 340 3.2 9.7 0.00 0.00 0.00 96 1016.1
20260502053842 12 348 6.4 8.0 0.00 0.00 0.00 96 1016.4
20260502053340 12 17 3.2 9.7 0.00 0.00 0.00 96 1016.4
20260502052837 12 18 6.4 9.7 0.00 0.00 0.00 96 1016.5
20260502052335 12 24 6.4 9.7 0.03 0.00 0.00 96 1016.6
20260502051833 12 353 4.8 9.7 0.05 0.00 0.00 96 1016.6
20260502051331 12 20 4.8 19.3 0.05 0.00 0.00 96 1016.6
20260502050827 12 37 4.8 14.5 0.08 0.00 0.00 96 1016.5
20260502050323 12 43 14.5 14.5 0.10 0.00 0.00 96 1016.4
20260502045821 12 36 6.4 11.3 0.10 6.15 6.15 97 1016.3
20260502045317 12 88 8.0 12.9 0.10 6.15 6.15 97 1016.2
20260502044815 12 33 6.4 19.3 0.10 6.15 6.15 97 1016.1
20260502044311 12 40 6.4 8.0 0.13 6.15 6.15 97 1015.8
20260502043808 12 21 4.8 16.1 0.13 6.15 6.15 97 1015.6
20260502043305 12 43 4.8 9.7 0.15 6.15 6.15 97 1015.1
20260502042805 12 358 3.2 6.4 0.15 6.12 6.12 97 1015.5
20260502042305 12 39 4.8 8.0 0.15 6.12 6.12 97 1015.2
20260502041800 12 20 9.7 14.5 0.15 6.10 6.10 97 1015.2
20260502041257 12 45 6.4 11.3 0.10 6.07 6.07 97 1014.8
20260502040754 12 25 3.2 9.7 0.10 6.07 6.07 97 1014.8
20260502040250 12 74 4.8 11.3 0.10 6.05 6.05 97 1014.8
20260502035746 12 358 3.2 8.0 0.10 6.05 6.05 97 1015.3
20260502035244 12 33 6.4 8.0 0.08 6.02 6.02 97 1015.5
20260502034741 12 34 8.0 14.5 0.08 6.02 6.02 97 1015.5
20260502034239 12 24 4.8 9.7 0.08 6.02 6.02 97 1015.6
20260502033737 12 20 6.4 12.9 0.05 5.99 5.99 97 1015.5
20260502033235 12 32 3.2 6.4 0.08 5.97 5.97 97 1015.3
20260502032731 12 356 4.8 14.5 0.05 5.97 5.97 97 1015.2
20260502032227 12 17 4.8 6.4 0.05 5.97 5.97 97 1015.5
20260502031725 12 355 3.2 11.3 0.05 5.97 5.97 97 1015.2
20260502031223 13 351 6.4 8.0 0.05 5.94 5.94 97 1015.1
20260502030722 13 356 3.2 6.4 0.05 5.94 5.94 97 1015.1
20260502030219 13 34 4.8 6.4 0.05 5.94 5.94 97 1014.8
20260502025716 13 17 3.2 9.7 0.05 5.94 5.94 97 1014.6
20260502025214 13 6 4.8 6.4 0.05 5.94 5.94 97 1014.7
20260502024711 13 49 6.4 9.7 0.05 5.94 5.94 97 1014.7
20260502024209 13 39 3.2 6.4 0.05 5.92 5.92 97 1014.7
20260502023707 13 97 3.2 6.4 0.03 5.92 5.92 97 1014.8
20260502023204 13 348 6.4 9.7 0.03 5.89 5.89 97 1014.8
20260502022701 13 45 4.8 9.7 0.03 5.89 5.89 97 1014.7
20260502022158 13 293 1.6 6.4 0.05 5.89 5.89 97 1014.7
20260502021655 13 326 3.2 8.0 0.05 5.89 5.89 97 1013.8
20260502021153 13 25 8.0 11.3 0.08 5.89 5.89 97 1013.3
20260502020649 13 8 8.0 14.5 0.10 5.89 5.89 97 1013.2
20260502020146 13 76 8.0 14.5 0.10 5.89 5.89 97 1012.8
20260502015644 13 353 8.0 12.9 0.13 5.89 5.89 97 1013.0
20260502015140 13 15 4.8 9.7 0.15 5.89 5.89 97 1012.6
20260502014638 13 88 1.6 9.7 0.18 5.87 5.87 97 1012.7
20260502014135 13 20 8.0 8.0 0.23 5.87 5.87 97 1012.5
20260502013631 13 21 4.8 11.3 0.28 5.87 5.87 97 1012.1
20260502013126 13 315 4.8 8.0 0.36 5.87 5.87 97 1011.9
20260502012624 13 31 4.8 9.7 0.36 5.87 5.87 97 1011.7
20260502012122 13 38 8.0 11.3 0.36 5.84 5.84 97 1011.8
20260502011618 13 349 1.6 12.9 0.36 5.82 5.82 97 1011.8
20260502011114 13 59 8.0 16.1 0.33 5.79 5.79 97 1011.8
20260502010612 13 33 6.4 9.7 0.30 5.79 5.79 97 1011.7
20260502010108 13 64 4.8 14.5 0.30 5.77 5.77 97 1011.7
20260502005606 13 19 3.2 9.7 0.28 5.74 5.74 97 1011.9
20260502005103 13 37 9.7 14.5 0.23 5.71 5.71 97 1011.9
20260502004559 13 43 6.4 12.9 0.18 5.66 5.66 97 1012.0
20260502004056 14 27 9.7 11.3 0.15 5.59 5.59 97 1012.2
20260502003554 14 19 8.0 14.5 0.10 5.51 5.51 97 1012.5
20260502003051 14 357 4.8 11.3 0.08 5.51 5.51 97 1012.5
20260502002547 14 355 4.8 12.9 0.10 5.49 5.49 97 1012.0
20260502002044 14 346 3.2 9.7 0.10 5.49 5.49 97 1011.5
20260502001542 14 38 3.2 9.7 0.13 5.46 5.46 97 1011.5
20260502001039 14 28 6.4 9.7 0.18 5.46 5.46 97 1011.3
20260502000537 14 23 4.8 8.0 0.23 5.46 5.46 97 1011.4
20260502000034 14 55 8.0 9.7 0.28 5.46 5.46 97 1011.0
20260501235530 14 5 9.7 9.7 0.28 5.46 5.46 97 1011.6
20260501235025 14 50 8.0 17.7 0.28 5.46 5.46 97 1011.6
20260501234521 15 28 6.4 11.3 0.30 5.46 5.46 98 1011.5
20260501234020 15 21 4.8 8.0 0.43 5.46 5.46 98 1011.3
20260501233518 15 62 6.4 8.0 0.48 5.44 5.44 98 1011.7
20260501233014 15 343 3.2 8.0 0.51 5.41 5.41 98 1011.9
20260501232510 15 57 4.8 6.4 0.56 5.36 5.36 98 1012.0
20260501232008 15 10 0.0 6.4 0.58 5.33 5.33 98 1012.5
20260501231506 15 39 4.8 8.0 0.61 5.31 5.31 98 1012.6
20260501231004 15 292 3.2 4.8 0.64 5.23 5.23 98 1012.2
20260501230502 15 50 3.2 6.4 0.69 5.21 5.21 98 1012.7
20260501225959 15 3 4.8 6.4 0.74 5.18 5.18 98 1012.5
20260501225457 15 18 3.2 6.4 0.81 5.18 5.18 98 1012.1
20260501224952 15 29 3.2 6.4 0.81 5.13 5.13 98 1012.4
20260501224450 15 330 9.7 9.7 0.84 5.08 5.08 98 1011.9
20260501223947 15 13 4.8 8.0 0.81 5.00 5.00 97 1011.6
20260501223443 15 49 4.8 9.7 0.81 4.93 4.93 97 1011.2
20260501222939 15 32 3.2 6.4 0.79 4.85 4.85 97 1011.3
20260501222436 15 80 6.4 9.7 0.76 4.80 4.80 97 1011.8
20260501221932 15 43 0.0 4.8 0.76 4.72 4.72 97 1011.7
20260501221430 15 29 3.2 4.8 0.76 4.65 4.65 97 1011.8
20260501220928 15 137 0.0 4.8 0.71 4.60 4.60 97 1011.7
20260501220425 15 39 1.6 6.4 0.66 4.50 4.50 97 1012.1
20260501215921 15 359 1.6 8.0 0.66 4.45 4.45 97 1012.3
20260501215418 15 26 3.2 9.7 0.64 4.37 4.37 97 1012.4
20260501214913 15 336 3.2 6.4 0.61 4.32 4.32 97 1012.3
20260501214409 15 5 0.0 3.2 0.56 4.24 4.24 97 1012.8
20260501213904 15 355 0.0 4.8 0.51 4.17 4.17 97 1012.5
20260501213401 15 308 1.6 3.2 0.51 4.11 4.11 97 1011.9
20260501212857 15 60 3.2 9.7 0.48 4.06 4.06 97 1011.4
20260501212354 15 13 1.6 4.8 0.46 4.01 4.01 97 1011.0
20260501211851 15 62 3.2 4.8 0.43 3.96 3.96 97 1011.0
20260501211348 15 341 3.2 4.8 0.43 3.89 3.89 97 1011.1
20260501210846 15 72 6.4 6.4 0.48 3.86 3.86 97 1011.3
20260501210343 15 72 3.2 4.8 0.51 3.81 3.81 97 1011.0
20260501205839 15 58 3.2 4.8 0.66 3.76 3.76 97 1011.1
20260501205336 15 22 1.6 6.4 0.71 3.73 3.73 97 1010.3
20260501204832 15 16 4.8 4.8 0.69 3.68 3.68 97 1009.8
20260501204329 15 63 3.2 8.0 0.66 3.68 3.68 97 1009.9
20260501203825 15 57 1.6 8.0 0.64 3.63 3.63 97 1009.8
20260501203323 15 81 6.4 9.7 0.61 3.61 3.61 97 1008.5
20260501202820 15 61 6.4 6.4 0.61 3.58 3.58 97 1009.2
20260501202317 15 58 3.2 9.7 0.58 3.56 3.56 96 1009.7
20260501201814 15 168 3.2 4.8 0.56 3.51 3.51 96 1010.0
20260501201310 15 14 4.8 6.4 0.46 3.43 3.43 96 1010.9
20260501200807 15 350 4.8 9.7 0.38 3.33 3.33 96 1010.9